Location: San Vito
(41.8833°N, 12.9833°E)
Time: 13:53:57
(UTC+00:00)

In-Cosmos 22 Rocket - Pass Details

Date: 17 November 2019
Orbit: 791 x 887 km, 81.2° (Epoch: 06 December)

Event Time Altitude Azimuth Distance (km) Brightness Sun altitude
Rises 04:14:15 0° 197° (SSW) 3,284 7.2 -19.5°
Reaches altitude 10° 04:16:37 10° 200° (SSW) 2,367 6.4 -19.1°
Maximum altitude 04:21:54 64° 282° (WNW) 897 4.0 -18.1°
Drops below altitude 10° 04:27:22 10° 4° (N) 2,435 6.5 -17.1°
Sets 04:29:50 0° 7° (N) 3,388 7.3 -16.7°
